Regional Weather Roundup
Issued by NWS

Home | Current Version | Previous Version | Graphics & Text | Print | Product List | Glossary On
Versions: 1 2 3 4 5 6 7 8 9 10 11 12 13 14 15 16 17 18 19 20 21 22 23 24 25 26 27
000
ASUS45 KPSR 281710
RWRAZ

ARIZONA HOURLY REGIONAL WEATHER ROUNDUP
NATIONAL WEATHER SERVICE PHOENIX AZ
1000 AM MST FRI APR 28 2017

NOTE: FAIR INDICATES FEW OR NO CLOUDS BELOW 12,000 FEET WITH NO
SIGNIFICANT WEATHER AND/OR OBSTRUCTIONS TO VISIBILITY.

AZZ001>003-036-281800-
NORTHWEST ARIZONA

CITY           SKY/WX    TMP DP  RH WIND       PRES   REMARKS
BULLHEAD CITY  SUNNY     72  12  10 N24G36    29.81R
KINGMAN        SUNNY     61  12  14 N20G32    29.86R
$$

AZZ004>008-015-016-018-281800-
NORTH CENTRAL ARIZONA

CITY           SKY/WX    TMP DP  RH WIND       PRES   REMARKS
GRAND CANYON   SUNNY     46  15  28 W13G25    29.81F
WILLIAMS       SUNNY     48  10  21 W16G25    29.84S
PRESCOTT       SUNNY     55  13  18 NW21G29   29.82F
FLAGSTAFF      PTSUNNY   45   9  23 NW10G20   29.82S
PAYSON         CLOUDY    59  16  18 W10G18    29.80S
PAGE           SUNNY     52   9  17 NW12G18   29.80F
$$

AZZ009>014-017-281800-
NORTHEAST ARIZONA

CITY           SKY/WX    TMP DP  RH WIND       PRES   REMARKS
WINSLOW        CLOUDY    51  28  41 NE3       29.80F
SAINT JOHNS    LGT RAIN  41  37  86 N20G25    29.79R
WINDOW ROCK    LGT SNOW  36  31  82 NW9       29.80S WCI  29
SHOW LOW       LGT RAIN  37  32  81 N10       29.84R WCI  30
$$

AZZ540-542>544-546-548-281800-
GREATER PHOENIX AREA

CITY           SKY/WX    TMP DP  RH WIND       PRES   REMARKS
PHOENIX        CLOUDY    76  50  40 W18       29.65S
BUCKEYE        CLOUDY    75  39  27 W8        29.68R
GLENDALE       PTSUNNY   81  48  32 S13       29.67F
LUKE AFB       CLOUDY    75  45  33 W12       29.65S
DEER VALLEY    CLOUDY    75  20  12 NW12      29.67S
SCOTTSDALE     CLOUDY    74  46  36 W13       29.68F
MESA-FALCON    PTSUNNY  N/A N/A N/A W17       29.67
MESA-GATEWAY   CLOUDY    75  46  35 W13G20    29.68R
CHANDLER       CLOUDY    77  50  38 W13       29.66S
$$

AZZ539-553-281800-
SOUTHWEST MARICOPA COUNTY AND PINAL COUNTY

CITY           SKY/WX    TMP DP  RH WIND       PRES   REMARKS
CASA GRANDE    CLOUDY    76  47  35 CALM      29.68S
GILA BEND      PTSUNNY   78  49  36 SW14G22   29.66R
$$

AZZ503-504-507>509-281800-
SOUTHEAST ARIZONA

CITY           SKY/WX    TMP DP  RH WIND       PRES   REMARKS
TUCSON         PTSUNNY   79  43  27 SW17      29.72F
DAVIS-MONTHAN  PTSUNNY   77  43  29 SW14G23   29.71F
RYAN FIELD     SUNNY     79  45  29 SW28      29.71F
NOGALES        MOSUNNY   74  45  35 S15G28    29.79S
SIERRA VISTA   MOSUNNY   70  40  33 S13G26    29.81S
DOUGLAS        MOSUNNY   73  39  29 SW22G29   29.78F
SAFFORD        CLOUDY    75  42  30 NW20G28   29.67F
$$

AZZ532-281800-
SOUTHWEST ARIZONA

CITY           SKY/WX    TMP DP  RH WIND       PRES   REMARKS
YUMA           PTSUNNY   79  19  10 N22G30    29.69S
$$

CAZ041-043-047-048-061-525>527-560>570-281800-
SOUTHERN CALIFORNIA

CITY           SKY/WX    TMP DP  RH WIND       PRES   REMARKS
DOWNTOWN L.A.  SUNNY     76  36  23 NW8       29.79S
L.A. AIRPORT   MOSUNNY   75  33  21 N21G28    29.80S
SAN DIEGO      MOSUNNY   65  57  75 VRB6      29.83S
BURBANK        SUNNY     71  32  23 NW24G36   29.80F
ONTARIO        MOSUNNY   69  44  40 W8        29.81S
RIVERSIDE      MOSUNNY   70  47  43 W9        29.80S
PALM SPRINGS   SUNNY     80  23  12 N8        29.77R
EL CENTRO NAS  MOSUNNY   82  32  16 NE17      29.73S
IMPERIAL       MOSUNNY   81  34  18 N12       29.71R
BLYTHE         PTSUNNY   75  16  10 N29G38    29.75R
NEEDLES        SUNNY     75  16  10 NE24G38   29.81R
$$

NVZ020-UTZ003-281800-
SOUTHERN NEVADA-UTAH

CITY           SKY/WX    TMP DP  RH WIND       PRES   REMARKS
LAS VEGAS      MOSUNNY   64   7  10 N31G38    29.86F
SALT LAKE CITY LGT SNOW  38  34  85 NW14      29.92R FOG     WCI  30
$$

NMZ009-TXZ055-281800-
NEW MEXICO-WEST TEXAS

CITY           SKY/WX    TMP DP  RH WIND       PRES   REMARKS
ALBUQUERQUE    CLOUDY    42  36  79 N18       29.75S
EL PASO        PTSUNNY   76  34  21 SW26G36   29.71F
$$


........................KEY........................
SKY/WX - SKY CONDITION/WEATHER
TMP    - TEMPERATURE IN FAHRENHEIT
DP     - DEW POINT IN FAHRENHEIT
RH     - RELATIVE HUMIDITY IN PERCENT
WIND   - DIRECTION AND SPEED IN MILES PER HOUR (MPH)
VRB    - VARIABLE WIND DIRECTION
PRES   - MEAN SEA LEVEL PRESSURE IN INCHES OF MERCURY
         F - FALLING PRESSURE   R - RISING PRESSURE
         S - STEADY PRESSURE
VSB    - VISIBILITY IN MILES
HX     - HEAT INDEX IN FAHRENHEIT
WCI    - WIND CHILL INDEX IN FAHRENHEIT
TC     - TEMPERATURE IN CELSIUS WHICH IS ALSO KNOWN AS
         TEMPERATURE IN CENTIGRADE
AFB    - AIR FORCE BASE
         LUKE AFB IS LUKE AIR FORCE BASE
         DAVIS-MONTHAN IS DAVIS-MONTHAN AIR FORCE BASE
NAS    - NAVAL AIR STATION
         EL CENTRO NAS IS EL CENTRO NAVAL AIR STATION
N/A    - NOT AVAILABLE





USA.gov is the U.S. government's official web portal to all federal, state and local government web resources and services.